Year,Month,Day,Hour,Minute,Value (Times are PST for windgust in km/hr)
2021,01,13,00,00,46.70
2021,01,13,00,01,43.50
2021,01,13,00,02,67.60
2021,01,13,00,03,88.50
2021,01,13,00,04,61.20
2021,01,13,00,05,57.90
2021,01,13,00,06,54.70
2021,01,13,00,07,38.60
2021,01,13,00,08,48.30
2021,01,13,00,09,66.00
2021,01,13,00,10,53.10
2021,01,13,00,11,64.40
2021,01,13,00,12,66.00
2021,01,13,00,13,54.70
2021,01,13,00,14,46.70
2021,01,13,00,15,45.10
2021,01,13,00,16,46.70
2021,01,13,00,17,77.30
2021,01,13,00,18,62.70
2021,01,13,00,19,59.50
2021,01,13,00,20,53.10
2021,01,13,00,21,59.50
2021,01,13,00,22,49.90
2021,01,13,00,23,70.80
2021,01,13,00,24,57.90
2021,01,13,00,25,37.00
2021,01,13,00,26,46.70
2021,01,13,00,27,41.80
2021,01,13,00,28,38.60
2021,01,13,00,29,53.10
2021,01,13,00,30,51.50
2021,01,13,00,31,45.10
2021,01,13,00,32,43.50
2021,01,13,00,33,41.80
2021,01,13,00,34,75.60
2021,01,13,00,35,59.50
2021,01,13,00,36,66.00
2021,01,13,00,37,38.60
2021,01,13,00,38,53.10
2021,01,13,00,39,54.70
2021,01,13,00,40,45.10
2021,01,13,00,41,62.70
2021,01,13,00,42,56.30
2021,01,13,00,43,46.70
2021,01,13,00,44,51.50
2021,01,13,00,45,53.10
2021,01,13,00,46,64.40
2021,01,13,00,47,53.10
2021,01,13,00,48,56.30
2021,01,13,00,49,54.70
2021,01,13,00,50,57.90
2021,01,13,00,51,41.80
2021,01,13,00,52,62.70
2021,01,13,00,53,51.50
2021,01,13,00,54,59.50
2021,01,13,00,55,41.80
2021,01,13,00,56,35.40
2021,01,13,00,57,35.40
2021,01,13,00,58,35.40
2021,01,13,00,59,35.40
2021,01,13,01,00,35.40
2021,01,13,01,01,35.40
2021,01,13,01,02,37.00
2021,01,13,01,03,57.90
2021,01,13,01,04,45.10
2021,01,13,01,05,49.90
2021,01,13,01,06,51.50
2021,01,13,01,07,53.10
2021,01,13,01,08,49.90
2021,01,13,01,09,56.30
2021,01,13,01,10,54.70
2021,01,13,01,11,46.70
2021,01,13,01,12,62.70
2021,01,13,01,13,35.40
2021,01,13,01,14,54.70
2021,01,13,01,15,45.10
2021,01,13,01,16,57.90
2021,01,13,01,17,61.20
2021,01,13,01,18,57.90
2021,01,13,01,19,46.70
2021,01,13,01,20,40.20
2021,01,13,01,21,64.40
2021,01,13,01,22,46.70
2021,01,13,01,23,41.80
2021,01,13,01,24,56.30
2021,01,13,01,25,41.80
2021,01,13,01,26,38.60
2021,01,13,01,27,56.30
2021,01,13,01,28,43.50
2021,01,13,01,29,35.40
2021,01,13,01,30,40.20
2021,01,13,01,31,38.60
2021,01,13,01,32,35.40
2021,01,13,01,33,40.20
2021,01,13,01,34,51.50
2021,01,13,01,35,38.60
2021,01,13,01,36,35.40
2021,01,13,01,37,32.20
2021,01,13,01,38,43.50
2021,01,13,01,39,48.30
2021,01,13,01,40,37.00
2021,01,13,01,41,43.50
2021,01,13,01,42,38.60
2021,01,13,01,43,48.30
2021,01,13,01,44,49.90
2021,01,13,01,45,51.50
2021,01,13,01,46,56.30
2021,01,13,01,47,40.20
2021,01,13,01,48,40.20
2021,01,13,01,49,40.20
2021,01,13,01,50,48.30
2021,01,13,01,51,48.30
2021,01,13,01,52,51.50
2021,01,13,01,53,37.00
2021,01,13,01,54,59.50
2021,01,13,01,55,49.90
2021,01,13,01,56,45.10
2021,01,13,01,57,40.20
2021,01,13,01,58,43.50
2021,01,13,01,59,56.30
2021,01,13,02,00,59.50
2021,01,13,02,01,72.40
2021,01,13,02,02,56.30
2021,01,13,02,03,45.10
2021,01,13,02,04,49.90
2021,01,13,02,05,56.30
2021,01,13,02,06,46.70
2021,01,13,02,07,72.40
2021,01,13,02,08,77.30
2021,01,13,02,09,70.80
2021,01,13,02,10,49.90
2021,01,13,02,11,49.90
2021,01,13,02,12,51.50
2021,01,13,02,13,54.70
2021,01,13,02,14,48.30
2021,01,13,02,15,51.50
2021,01,13,02,16,49.90
2021,01,13,02,17,57.90
2021,01,13,02,18,48.30
2021,01,13,02,19,48.30
2021,01,13,02,20,43.50
2021,01,13,02,21,43.50
2021,01,13,02,22,38.60
2021,01,13,02,23,40.20
2021,01,13,02,24,49.90
2021,01,13,02,25,46.70
2021,01,13,02,26,32.20
2021,01,13,02,27,37.00
2021,01,13,02,28,45.10
2021,01,13,02,29,48.30
2021,01,13,02,30,40.20
2021,01,13,02,31,29.00
2021,01,13,02,32,41.80
2021,01,13,02,33,49.90
2021,01,13,02,34,30.60
2021,01,13,02,35,45.10
2021,01,13,02,36,45.10
2021,01,13,02,37,46.70
2021,01,13,02,38,37.00
2021,01,13,02,39,45.10
2021,01,13,02,40,57.90
2021,01,13,02,41,48.30
2021,01,13,02,42,45.10
2021,01,13,02,43,49.90
2021,01,13,02,44,33.80
2021,01,13,02,45,33.80
2021,01,13,02,46,43.50
2021,01,13,02,47,32.20
2021,01,13,02,48,61.20
2021,01,13,02,49,48.30
2021,01,13,02,50,37.00
2021,01,13,02,51,51.50
2021,01,13,02,52,45.10
2021,01,13,02,53,25.70
2021,01,13,02,54,32.20
2021,01,13,02,55,53.10
2021,01,13,02,56,53.10
2021,01,13,02,57,45.10
2021,01,13,02,58,38.60
2021,01,13,02,59,25.70
2021,01,13,03,00,40.20
2021,01,13,03,01,48.30
2021,01,13,03,02,57.90
2021,01,13,03,03,33.80
2021,01,13,03,04,29.00
2021,01,13,03,05,37.00
2021,01,13,03,06,51.50
2021,01,13,03,07,51.50
2021,01,13,03,08,48.30
2021,01,13,03,09,45.10
2021,01,13,03,10,40.20
2021,01,13,03,11,32.20
2021,01,13,03,12,37.00
2021,01,13,03,13,46.70
2021,01,13,03,14,56.30
2021,01,13,03,15,38.60
2021,01,13,03,16,49.90
2021,01,13,03,17,37.00
2021,01,13,03,18,29.00
2021,01,13,03,19,35.40
2021,01,13,03,20,49.90
2021,01,13,03,21,48.30
2021,01,13,03,22,49.90
2021,01,13,03,23,45.10
2021,01,13,03,24,25.70
2021,01,13,03,25,37.00
2021,01,13,03,26,35.40
2021,01,13,03,27,30.60
2021,01,13,03,28,37.00
2021,01,13,03,29,48.30
2021,01,13,03,30,33.80
2021,01,13,03,31,30.60
2021,01,13,03,32,45.10
2021,01,13,03,33,54.70
2021,01,13,03,34,41.80
2021,01,13,03,35,33.80
2021,01,13,03,36,70.80
2021,01,13,03,37,56.30
2021,01,13,03,38,56.30
2021,01,13,03,39,33.80
2021,01,13,03,40,37.00
2021,01,13,03,41,46.70
2021,01,13,03,42,51.50
2021,01,13,03,43,49.90
2021,01,13,03,44,46.70
2021,01,13,03,45,70.80
2021,01,13,03,46,46.70
2021,01,13,03,47,49.90
2021,01,13,03,48,46.70
2021,01,13,03,49,37.00
2021,01,13,03,50,45.10
2021,01,13,03,51,33.80
2021,01,13,03,52,30.60
2021,01,13,03,53,32.20
2021,01,13,03,54,32.20
2021,01,13,03,55,40.20
2021,01,13,03,56,19.30
2021,01,13,03,57,17.70
2021,01,13,03,58,20.90
2021,01,13,03,59,51.50
2021,01,13,04,00,25.70
2021,01,13,04,01,37.00
2021,01,13,04,02,45.10
2021,01,13,04,03,27.40
2021,01,13,04,04,25.70
2021,01,13,04,05,30.60
2021,01,13,04,06,32.20
2021,01,13,04,07,32.20
2021,01,13,04,08,35.40
2021,01,13,04,09,24.20
2021,01,13,04,10,32.20
2021,01,13,04,11,43.50
2021,01,13,04,12,32.20
2021,01,13,04,13,38.60
2021,01,13,04,14,38.60
2021,01,13,04,15,40.20
2021,01,13,04,16,37.00
2021,01,13,04,17,33.80
2021,01,13,04,18,32.20
2021,01,13,04,19,30.60
2021,01,13,04,20,29.00
2021,01,13,04,21,56.30
2021,01,13,04,22,48.30
2021,01,13,04,23,38.60
2021,01,13,04,24,32.20
2021,01,13,04,25,24.20
2021,01,13,04,26,24.20
2021,01,13,04,27,27.40
2021,01,13,04,28,27.40
2021,01,13,04,29,30.60
2021,01,13,04,30,29.00
2021,01,13,04,31,24.20
2021,01,13,04,32,16.10
2021,01,13,04,33,30.60
2021,01,13,04,34,12.90
2021,01,13,04,37,6.40
2021,01,13,04,39,27.40
2021,01,13,04,40,24.20
2021,01,13,04,41,35.40
2021,01,13,04,42,25.70
2021,01,13,04,43,37.00
2021,01,13,04,44,30.60
2021,01,13,04,45,37.00
2021,01,13,04,46,24.20
2021,01,13,04,47,45.10
2021,01,13,04,48,32.20
2021,01,13,04,49,40.20
2021,01,13,04,50,38.60
2021,01,13,04,51,32.20
2021,01,13,04,52,37.00
2021,01,13,04,53,24.20
2021,01,13,04,54,40.20
2021,01,13,04,55,33.80
2021,01,13,04,56,40.20
2021,01,13,04,57,33.80
2021,01,13,04,58,46.70
2021,01,13,04,59,35.40
2021,01,13,05,00,53.10
2021,01,13,05,01,45.10
2021,01,13,05,02,32.20
2021,01,13,05,03,37.00
2021,01,13,05,04,46.70
2021,01,13,05,05,53.10
2021,01,13,05,06,43.50
2021,01,13,05,07,30.60
2021,01,13,05,08,32.20
2021,01,13,05,09,30.60
2021,01,13,05,10,38.60
2021,01,13,05,11,37.00
2021,01,13,05,12,43.50
2021,01,13,05,13,43.50
2021,01,13,05,14,61.20
2021,01,13,05,15,45.10
2021,01,13,05,16,46.70
2021,01,13,05,17,38.60
2021,01,13,05,18,38.60
2021,01,13,05,19,40.20
2021,01,13,05,20,49.90
2021,01,13,05,21,49.90
2021,01,13,05,22,35.40
2021,01,13,05,23,41.80
2021,01,13,05,24,45.10
2021,01,13,05,25,41.80
2021,01,13,05,26,25.70
2021,01,13,05,27,37.00
2021,01,13,05,28,38.60
2021,01,13,05,29,56.30
2021,01,13,05,30,40.20
2021,01,13,05,31,35.40
2021,01,13,05,32,37.00
2021,01,13,05,33,46.70
2021,01,13,05,34,48.30
2021,01,13,05,35,41.80
2021,01,13,05,36,20.90
2021,01,13,05,37,32.20
2021,01,13,05,38,20.90
2021,01,13,05,39,29.00
2021,01,13,05,40,24.20
2021,01,13,05,41,35.40
2021,01,13,05,42,40.20
2021,01,13,05,43,40.20
2021,01,13,05,44,38.60
2021,01,13,05,45,43.50
2021,01,13,05,46,46.70
2021,01,13,05,47,22.50
2021,01,13,05,48,41.80
2021,01,13,05,49,37.00
2021,01,13,05,50,49.90
2021,01,13,05,51,33.80
2021,01,13,05,52,27.40
2021,01,13,05,53,37.00
2021,01,13,05,54,35.40
2021,01,13,05,55,29.00
2021,01,13,05,56,22.50
2021,01,13,05,57,37.00
2021,01,13,05,58,29.00
2021,01,13,05,59,20.90
2021,01,13,06,00,25.70
2021,01,13,06,01,17.70
2021,01,13,06,02,27.40
2021,01,13,06,03,22.50
2021,01,13,06,04,27.40
2021,01,13,06,05,19.30
2021,01,13,06,06,35.40
2021,01,13,06,07,25.70
2021,01,13,06,08,20.90
2021,01,13,06,09,14.50
2021,01,13,06,10,27.40
2021,01,13,06,11,30.60
2021,01,13,06,12,16.10
2021,01,13,06,13,20.90
2021,01,13,06,14,14.50
2021,01,13,06,15,19.30
2021,01,13,06,16,20.90
2021,01,13,06,17,12.90
2021,01,13,06,18,12.90
2021,01,13,06,19,20.90
2021,01,13,06,20,19.30
2021,01,13,06,21,19.30
2021,01,13,06,22,22.50
2021,01,13,06,23,9.60
2021,01,13,06,24,16.10
2021,01,13,06,25,17.70
2021,01,13,06,29,3.20
2021,01,13,06,31,22.50
2021,01,13,06,32,22.50
2021,01,13,06,33,19.30
2021,01,13,06,34,16.10
2021,01,13,06,35,27.40
2021,01,13,06,36,20.90
2021,01,13,06,37,22.50
2021,01,13,06,38,16.10
2021,01,13,06,39,25.70
2021,01,13,06,40,25.70
2021,01,13,06,41,33.80
2021,01,13,06,42,25.70
2021,01,13,06,43,20.90
2021,01,13,06,44,12.90
2021,01,13,06,45,17.70
2021,01,13,06,46,17.70
2021,01,13,06,47,9.60
2021,01,13,06,48,20.90
2021,01,13,06,49,16.10
2021,01,13,06,50,12.90
2021,01,13,06,51,19.30
2021,01,13,06,53,6.40
2021,01,13,06,54,1.60
2021,01,13,06,57,24.20
2021,01,13,06,58,32.20
2021,01,13,06,59,29.00
2021,01,13,07,00,27.40
2021,01,13,07,01,16.10
2021,01,13,07,02,9.60
2021,01,13,07,03,14.50
2021,01,13,07,04,22.50
2021,01,13,07,05,1.60
2021,01,13,07,06,3.20
2021,01,13,07,09,19.30
2021,01,13,07,10,20.90
2021,01,13,07,12,24.20
2021,01,13,07,13,14.50
2021,01,13,07,14,29.00
2021,01,13,07,19,1.60
2021,01,13,07,20,25.70
2021,01,13,07,21,27.40
2021,01,13,07,22,22.50
2021,01,13,07,23,17.70
2021,01,13,07,24,16.10
2021,01,13,07,25,29.00
2021,01,13,07,26,14.50
2021,01,13,07,27,12.90
2021,01,13,07,30,19.30
2021,01,13,07,31,16.10
2021,01,13,07,32,9.60
2021,01,13,07,33,25.70
2021,01,13,07,34,14.50
2021,01,13,07,35,14.50
2021,01,13,07,36,30.60
2021,01,13,07,37,20.90
2021,01,13,07,38,14.50
2021,01,13,07,39,27.40
2021,01,13,07,40,32.20
2021,01,13,07,41,25.70
2021,01,13,07,42,22.50
2021,01,13,07,43,22.50
2021,01,13,07,44,27.40
2021,01,13,07,45,24.20
2021,01,13,07,46,22.50
2021,01,13,07,47,29.00
2021,01,13,07,48,32.20
2021,01,13,07,49,38.60
2021,01,13,07,50,17.70
2021,01,13,07,51,22.50
2021,01,13,07,52,24.20
2021,01,13,07,53,27.40
2021,01,13,07,54,27.40
2021,01,13,07,55,20.90
2021,01,13,07,56,19.30
2021,01,13,07,57,25.70
2021,01,13,07,58,25.70
2021,01,13,07,59,33.80
2021,01,13,08,00,29.00
2021,01,13,08,01,20.90
2021,01,13,08,02,22.50
2021,01,13,08,03,29.00
2021,01,13,08,04,24.20
2021,01,13,08,05,19.30
2021,01,13,08,06,16.10
2021,01,13,08,07,16.10
2021,01,13,08,08,24.20
2021,01,13,08,09,20.90
2021,01,13,08,10,19.30
2021,01,13,08,11,19.30
2021,01,13,08,12,20.90
2021,01,13,08,13,14.50
2021,01,13,08,14,25.70
2021,01,13,08,15,29.00
2021,01,13,08,16,24.20
2021,01,13,08,17,19.30
2021,01,13,08,18,20.90
2021,01,13,08,19,25.70
2021,01,13,08,20,22.50
2021,01,13,08,21,24.20
2021,01,13,08,22,22.50
2021,01,13,08,23,17.70
2021,01,13,08,24,20.90
2021,01,13,08,25,24.20
2021,01,13,08,26,17.70
2021,01,13,08,27,19.30
2021,01,13,08,28,20.90
2021,01,13,08,29,19.30
2021,01,13,08,30,19.30
2021,01,13,08,31,29.00
2021,01,13,08,32,30.60
2021,01,13,08,33,25.70
2021,01,13,08,34,24.20
2021,01,13,08,35,22.50
2021,01,13,08,36,20.90
2021,01,13,08,37,22.50
2021,01,13,08,38,16.10
2021,01,13,08,39,17.70
2021,01,13,08,40,19.30
2021,01,13,08,41,16.10
2021,01,13,08,42,17.70
2021,01,13,08,43,20.90
2021,01,13,08,44,24.20
2021,01,13,08,45,22.50
2021,01,13,08,46,24.20
2021,01,13,08,47,22.50
2021,01,13,08,48,24.20
2021,01,13,08,49,19.30
2021,01,13,08,50,32.20
2021,01,13,08,51,27.40
2021,01,13,08,52,25.70
2021,01,13,08,53,22.50
2021,01,13,08,54,22.50
2021,01,13,08,55,24.20
2021,01,13,08,56,22.50
2021,01,13,08,57,20.90
2021,01,13,08,58,32.20
2021,01,13,08,59,29.00
2021,01,13,09,00,29.00
2021,01,13,09,01,45.10
2021,01,13,09,02,33.80
2021,01,13,09,03,22.50
2021,01,13,09,04,19.30
2021,01,13,09,05,30.60
2021,01,13,09,06,24.20
2021,01,13,09,07,22.50
2021,01,13,09,08,25.70
2021,01,13,09,09,30.60
2021,01,13,09,10,30.60
2021,01,13,09,11,22.50
2021,01,13,09,12,16.10
2021,01,13,09,13,29.00
2021,01,13,09,14,32.20
2021,01,13,09,15,29.00
2021,01,13,09,16,24.20
2021,01,13,09,17,25.70
2021,01,13,09,18,30.60
2021,01,13,09,19,22.50
2021,01,13,09,20,27.40
2021,01,13,09,21,29.00
2021,01,13,09,22,30.60
2021,01,13,09,23,30.60
2021,01,13,09,24,33.80
2021,01,13,09,25,19.30
2021,01,13,09,26,29.00
2021,01,13,09,27,37.00
2021,01,13,09,28,33.80
2021,01,13,09,29,33.80
2021,01,13,09,30,12.90
2021,01,13,09,31,22.50
2021,01,13,09,32,24.20
2021,01,13,09,33,30.60
2021,01,13,09,34,22.50
2021,01,13,09,35,22.50
2021,01,13,09,36,17.70
2021,01,13,09,37,19.30
2021,01,13,09,38,22.50
2021,01,13,09,39,22.50
2021,01,13,09,40,24.20
2021,01,13,09,41,33.80
2021,01,13,09,42,30.60
2021,01,13,09,43,27.40
2021,01,13,09,44,22.50
2021,01,13,09,45,30.60
2021,01,13,09,46,27.40
2021,01,13,09,47,25.70
2021,01,13,09,48,19.30
2021,01,13,09,49,16.10
2021,01,13,09,50,22.50
2021,01,13,09,51,20.90
2021,01,13,09,52,22.50
2021,01,13,09,53,24.20
2021,01,13,09,54,20.90
2021,01,13,09,55,25.70
2021,01,13,09,56,22.50
2021,01,13,09,57,22.50
2021,01,13,09,58,25.70
2021,01,13,09,59,16.10
2021,01,13,10,00,14.50
2021,01,13,10,01,16.10
2021,01,13,10,02,14.50
2021,01,13,10,03,17.70
2021,01,13,10,04,14.50
2021,01,13,10,05,22.50
2021,01,13,10,06,17.70
2021,01,13,10,07,9.60
2021,01,13,10,08,25.70
2021,01,13,10,09,25.70
2021,01,13,10,10,22.50
2021,01,13,10,11,20.90
2021,01,13,10,12,8.10
2021,01,13,10,13,19.30
2021,01,13,10,14,14.50
2021,01,13,10,15,14.50
2021,01,13,10,16,16.10
2021,01,13,10,17,12.90
2021,01,13,10,18,20.90
2021,01,13,10,19,19.30
2021,01,13,10,20,16.10
2021,01,13,10,21,16.10
2021,01,13,10,22,9.60
2021,01,13,10,23,4.80
2021,01,13,10,24,9.60
2021,01,13,10,25,9.60
2021,01,13,10,26,1.60
2021,01,13,10,27,1.60
2021,01,13,10,28,3.20
2021,01,13,10,31,3.20
2021,01,13,10,32,9.60
2021,01,13,10,33,8.10
2021,01,13,10,34,6.40
2021,01,13,10,35,12.90
2021,01,13,10,36,4.80
2021,01,13,10,37,6.40
2021,01,13,10,38,6.40
2021,01,13,10,39,12.90
2021,01,13,10,40,16.10
2021,01,13,10,41,9.60
2021,01,13,10,42,3.20
2021,01,13,10,43,16.10
2021,01,13,10,44,17.70
2021,01,13,10,45,8.10
2021,01,13,10,46,12.90
2021,01,13,10,47,12.90
2021,01,13,10,48,9.60
2021,01,13,10,49,14.50
2021,01,13,10,50,17.70
2021,01,13,10,51,19.30
2021,01,13,10,52,25.70
2021,01,13,10,53,25.70
2021,01,13,10,54,22.50
2021,01,13,10,55,24.20
2021,01,13,10,56,25.70
2021,01,13,10,57,19.30
2021,01,13,10,58,24.20
2021,01,13,10,59,25.70
2021,01,13,11,00,32.20
2021,01,13,11,01,33.80
2021,01,13,11,02,37.00
2021,01,13,11,03,24.20
2021,01,13,11,04,32.20
2021,01,13,11,05,27.40
2021,01,13,11,06,14.50
2021,01,13,11,07,14.50
2021,01,13,11,08,19.30
2021,01,13,11,09,27.40
2021,01,13,11,10,24.20
2021,01,13,11,11,16.10
2021,01,13,11,12,22.50
2021,01,13,11,13,16.10
2021,01,13,11,14,14.50
2021,01,13,11,15,6.40
2021,01,13,11,16,12.90
2021,01,13,11,17,9.60
2021,01,13,11,18,17.70
2021,01,13,11,19,17.70
2021,01,13,11,20,17.70
2021,01,13,11,21,22.50
2021,01,13,11,22,16.10
2021,01,13,11,23,16.10
2021,01,13,11,24,16.10
2021,01,13,11,25,6.40
2021,01,13,11,26,6.40
2021,01,13,11,27,6.40
2021,01,13,11,28,8.10
2021,01,13,11,29,8.10
2021,01,13,11,30,14.50
2021,01,13,11,31,16.10
2021,01,13,11,32,16.10
2021,01,13,11,33,9.60
2021,01,13,11,34,12.90
2021,01,13,11,36,16.10
2021,01,13,11,37,14.50
2021,01,13,11,38,20.90
2021,01,13,11,39,14.50
2021,01,13,11,40,14.50
2021,01,13,11,41,19.30
2021,01,13,11,42,19.30
2021,01,13,11,43,16.10
2021,01,13,11,44,17.70
2021,01,13,11,45,22.50
2021,01,13,11,46,25.70
2021,01,13,11,47,22.50
2021,01,13,11,48,19.30
2021,01,13,11,49,17.70
2021,01,13,11,50,17.70
2021,01,13,11,51,17.70
2021,01,13,11,52,16.10
2021,01,13,11,53,19.30
2021,01,13,11,54,17.70
2021,01,13,11,55,19.30
2021,01,13,11,56,17.70
2021,01,13,11,57,19.30
2021,01,13,11,58,17.70
2021,01,13,11,59,8.10
2021,01,13,12,00,17.70
2021,01,13,12,01,16.10
2021,01,13,12,02,8.10
2021,01,13,12,11,14.50
2021,01,13,12,12,17.70
2021,01,13,12,13,8.10
2021,01,13,12,14,8.10
2021,01,13,12,15,9.60
2021,01,13,12,16,17.70
2021,01,13,12,17,17.70
2021,01,13,12,18,19.30
2021,01,13,12,19,16.10
2021,01,13,12,20,14.50
2021,01,13,12,21,9.60
2021,01,13,12,22,16.10
2021,01,13,12,23,14.50
2021,01,13,12,24,14.50
2021,01,13,12,25,9.60
2021,01,13,12,26,20.90
2021,01,13,12,27,19.30
2021,01,13,12,28,6.40
2021,01,13,12,29,8.10
2021,01,13,12,30,6.40
2021,01,13,12,33,8.10
2021,01,13,12,34,8.10
2021,01,13,12,35,8.10
2021,01,13,12,36,8.10
2021,01,13,12,39,14.50
2021,01,13,12,40,16.10
2021,01,13,12,41,6.40
2021,01,13,12,43,8.10
2021,01,13,12,44,6.40
2021,01,13,12,45,4.80
2021,01,13,12,47,1.60
2021,01,13,12,48,1.60
2021,01,13,12,50,8.10
2021,01,13,12,51,1.60
2021,01,13,12,52,4.80
2021,01,13,12,56,6.40
2021,01,13,12,57,16.10
2021,01,13,12,58,8.10
2021,01,13,12,59,6.40
2021,01,13,13,00,14.50
2021,01,13,13,01,12.90
2021,01,13,13,02,6.40
2021,01,13,13,03,14.50
2021,01,13,13,04,12.90
2021,01,13,13,05,6.40
2021,01,13,13,06,8.10
2021,01,13,13,07,16.10
2021,01,13,13,08,20.90
2021,01,13,13,09,19.30
2021,01,13,13,10,22.50
2021,01,13,13,11,17.70
2021,01,13,13,12,17.70
2021,01,13,13,13,22.50
2021,01,13,13,14,17.70
2021,01,13,13,15,20.90
2021,01,13,13,16,14.50
2021,01,13,13,17,19.30
2021,01,13,13,18,14.50
2021,01,13,13,19,17.70
2021,01,13,13,20,24.20
2021,01,13,13,21,22.50
2021,01,13,13,22,25.70
2021,01,13,13,23,22.50
2021,01,13,13,24,27.40
2021,01,13,13,25,27.40
2021,01,13,13,26,17.70
2021,01,13,13,27,17.70
2021,01,13,13,28,22.50
2021,01,13,13,29,22.50
2021,01,13,13,30,30.60
2021,01,13,13,31,30.60
2021,01,13,13,32,27.40
2021,01,13,13,33,20.90
2021,01,13,13,34,27.40
2021,01,13,13,35,27.40
2021,01,13,13,36,25.70
2021,01,13,13,37,24.20
2021,01,13,13,38,24.20
2021,01,13,13,39,17.70
2021,01,13,13,40,19.30
2021,01,13,13,41,29.00
2021,01,13,13,42,29.00
2021,01,13,13,43,30.60
2021,01,13,13,44,30.60
2021,01,13,13,45,27.40
2021,01,13,13,46,29.00
2021,01,13,13,47,20.90
2021,01,13,13,48,22.50
2021,01,13,13,49,25.70
2021,01,13,13,50,22.50
2021,01,13,13,51,27.40
2021,01,13,13,52,22.50
2021,01,13,13,53,24.20
2021,01,13,13,54,25.70
2021,01,13,13,55,20.90
2021,01,13,13,56,29.00
2021,01,13,13,57,33.80
2021,01,13,13,58,25.70
2021,01,13,13,59,24.20
2021,01,13,14,00,17.70
2021,01,13,14,01,24.20
2021,01,13,14,02,24.20
2021,01,13,14,03,24.20
2021,01,13,14,04,20.90
2021,01,13,14,05,25.70
2021,01,13,14,06,22.50
2021,01,13,14,09,25.70
2021,01,13,14,10,29.00
2021,01,13,14,11,32.20
2021,01,13,14,12,20.90
2021,01,13,14,13,24.20
2021,01,13,14,14,32.20
2021,01,13,14,15,20.90
2021,01,13,14,16,14.50
2021,01,13,14,17,25.70
2021,01,13,14,18,29.00
2021,01,13,14,19,14.50
2021,01,13,14,20,22.50
2021,01,13,14,21,20.90
2021,01,13,14,22,19.30
2021,01,13,14,23,24.20
2021,01,13,14,24,24.20
2021,01,13,14,25,17.70
2021,01,13,14,26,24.20
2021,01,13,14,27,27.40
2021,01,13,14,28,20.90
2021,01,13,14,29,16.10
2021,01,13,14,30,22.50
2021,01,13,14,31,22.50
2021,01,13,14,32,29.00
2021,01,13,14,33,25.70
2021,01,13,14,34,29.00
2021,01,13,14,35,29.00
2021,01,13,14,36,17.70
2021,01,13,14,37,20.90
2021,01,13,14,38,24.20
2021,01,13,14,39,17.70
2021,01,13,14,40,16.10
2021,01,13,14,41,12.90
2021,01,13,14,43,24.20
2021,01,13,14,44,24.20
2021,01,13,14,45,25.70
2021,01,13,14,46,27.40
2021,01,13,14,47,19.30
2021,01,13,14,48,19.30
2021,01,13,14,49,20.90
2021,01,13,14,50,20.90
2021,01,13,14,51,24.20
2021,01,13,14,52,27.40
2021,01,13,14,53,19.30
2021,01,13,14,54,17.70
2021,01,13,14,55,24.20
2021,01,13,14,56,17.70
2021,01,13,14,57,24.20
2021,01,13,14,58,33.80
2021,01,13,14,59,27.40
2021,01,13,15,00,20.90
2021,01,13,15,01,17.70
2021,01,13,15,02,24.20
2021,01,13,15,03,19.30
2021,01,13,15,04,27.40
2021,01,13,15,05,24.20
2021,01,13,15,06,19.30
2021,01,13,15,07,16.10
2021,01,13,15,08,14.50
2021,01,13,15,09,12.90
2021,01,13,15,10,17.70
2021,01,13,15,11,22.50
2021,01,13,15,12,22.50
2021,01,13,15,13,9.60
2021,01,13,15,14,14.50
2021,01,13,15,15,12.90
2021,01,13,15,16,17.70
2021,01,13,15,17,16.10
2021,01,13,15,18,16.10
2021,01,13,15,19,14.50
2021,01,13,15,20,16.10
2021,01,13,15,22,6.40
2021,01,13,15,25,22.50
2021,01,13,15,26,24.20
2021,01,13,15,27,19.30
2021,01,13,15,28,17.70
2021,01,13,15,29,16.10
2021,01,13,15,30,20.90
2021,01,13,15,31,16.10
2021,01,13,15,32,12.90
2021,01,13,15,33,14.50
2021,01,13,15,34,9.60
2021,01,13,15,35,9.60
2021,01,13,15,36,12.90
2021,01,13,15,37,14.50
2021,01,13,15,38,14.50
2021,01,13,15,39,14.50
2021,01,13,15,40,9.60
2021,01,13,15,41,1.60
2021,01,13,15,46,16.10
2021,01,13,15,47,17.70
2021,01,13,15,48,12.90
2021,01,13,15,49,14.50
2021,01,13,15,50,6.40
2021,01,13,15,51,6.40
2021,01,13,15,52,17.70
2021,01,13,15,53,19.30
2021,01,13,15,54,16.10
2021,01,13,15,55,19.30
2021,01,13,15,56,20.90
2021,01,13,15,57,17.70
2021,01,13,15,58,22.50
2021,01,13,15,59,16.10
2021,01,13,16,00,12.90
2021,01,13,16,01,6.40
2021,01,13,16,02,4.80
2021,01,13,16,03,6.40
2021,01,13,16,04,17.70
2021,01,13,16,05,14.50
2021,01,13,16,06,12.90
2021,01,13,16,07,8.10
2021,01,13,16,08,6.40
2021,01,13,16,10,6.40
2021,01,13,16,11,9.60
2021,01,13,16,12,6.40
2021,01,13,16,13,4.80
2021,01,13,16,14,8.10
2021,01,13,16,15,8.10
2021,01,13,16,16,6.40
2021,01,13,16,17,6.40
2021,01,13,16,22,4.80
2021,01,13,16,23,1.60
2021,01,13,16,34,4.80
2021,01,13,16,35,6.40
2021,01,13,16,36,3.20
2021,01,13,16,40,3.20
2021,01,13,16,53,6.40
2021,01,13,16,54,4.80
2021,01,13,16,55,6.40
2021,01,13,16,56,3.20
2021,01,13,17,12,6.40
2021,01,13,17,13,9.60
2021,01,13,17,14,9.60
2021,01,13,17,15,8.10
2021,01,13,17,16,6.40
2021,01,13,17,17,9.60
2021,01,13,17,18,4.80
2021,01,13,17,19,8.10
2021,01,13,17,20,3.20
2021,01,13,17,21,3.20
2021,01,13,17,22,4.80
2021,01,13,17,23,4.80
2021,01,13,17,24,6.40
2021,01,13,17,25,4.80
2021,01,13,17,29,12.90
2021,01,13,17,30,12.90
2021,01,13,17,31,9.60
2021,01,13,17,32,8.10
2021,01,13,17,33,9.60
2021,01,13,17,34,14.50
2021,01,13,17,35,9.60
2021,01,13,17,36,9.60
2021,01,13,17,37,8.10
2021,01,13,17,38,6.40
2021,01,13,17,42,6.40
2021,01,13,17,43,4.80
2021,01,13,17,44,1.60
2021,01,13,18,06,1.60
2021,01,13,18,11,6.40
2021,01,13,18,14,3.20
2021,01,13,18,24,4.80
